PUA984 SUMU-KMIA

Flight info

Callsign PUA984
Flight time N/A
Altitude 38000
Route MONSA UP526 GEMSU UZ120 SIS UM784 LOKOX UL417 ISARA/N0486F400 UL417 LENAX UL795 ALTIB UM779 ZEUSS VIICE2
Aircraft B788/H-SDE1E2E3FGHIJ2J3J4J5M1RWXY/LB1D1

Departure

Time 2026-05-04 05:09
Airport Carrasco General Cesáreo L. Berisso International Airport (SUMU)

Arrival

Time N/A
Airport Miami International Airport (KMIA)
Time Latitude Longitude Altitude Speed Heading
2026-05-04 04:52 -34.83630 -56.01786 79 ft 0 kts 143°
2026-05-04 04:56 -34.83623 -56.01793 79 ft 4 kts 145°
2026-05-04 04:57 -34.83600 -56.01811 83 ft 4 kts 151°
2026-05-04 04:57 -34.83576 -56.01825 84 ft 4 kts 160°
2026-05-04 04:57 -34.83550 -56.01833 84 ft 4 kts 182°
2026-05-04 04:57 -34.83530 -56.01826 84 ft 2 kts 233°
2026-05-04 04:58 -34.83530 -56.01825 84 ft 5 kts 233°
2026-05-04 05:00 -34.83532 -56.01828 79 ft 1 kts 233°
2026-05-04 05:00 -34.83547 -56.01854 85 ft 3 kts 233°
2026-05-04 05:01 -34.83561 -56.01875 84 ft 4 kts 233°
2026-05-04 05:01 -34.83577 -56.01902 83 ft 4 kts 233°
2026-05-04 05:01 -34.83598 -56.01935 85 ft 5 kts 233°
2026-05-04 05:01 -34.83621 -56.01974 84 ft 6 kts 233°
2026-05-04 05:02 -34.83649 -56.02019 85 ft 7 kts 233°
2026-05-04 05:02 -34.83679 -56.02070 82 ft 8 kts 233°
2026-05-04 05:02 -34.83713 -56.02126 83 ft 9 kts 233°
2026-05-04 05:02 -34.83750 -56.02186 84 ft 9 kts 234°
2026-05-04 05:03 -34.83801 -56.02228 69 ft 10 kts 200°
2026-05-04 05:03 -34.83891 -56.02240 65 ft 13 kts 187°
2026-05-04 05:04 -34.83951 -56.02540 60 ft 13 kts 269°
2026-05-04 05:04 -34.83956 -56.02653 60 ft 13 kts 259°
2026-05-04 05:04 -34.83995 -56.02757 59 ft 14 kts 244°
2026-05-04 05:06 -34.84200 -56.03500 67 ft 18 kts 241°
2026-05-04 05:06 -34.84235 -56.03635 71 ft 17 kts 277°
2026-05-04 05:06 -34.84262 -56.03776 64 ft 19 kts 237°
2026-05-04 05:07 -34.84352 -56.03895 63 ft 16 kts 208°
2026-05-04 05:07 -34.84408 -56.03947 57 ft 5 kts 254°
2026-05-04 05:07 -34.84402 -56.03961 58 ft 1 kts 302°
2026-05-04 05:09 -34.81786 -55.99911 2105 ft 154 kts 27°
2026-05-04 05:09 -34.80800 -55.99191 2383 ft 179 kts 12°
2026-05-04 05:10 -34.79552 -55.99457 2632 ft 199 kts 328°
2026-05-04 05:10 -34.78256 -56.00293 2992 ft 226 kts 338°
2026-05-04 05:10 -34.76664 -56.00848 3641 ft 246 kts 342°
2026-05-04 05:10 -34.75009 -56.01423 4660 ft 251 kts 339°
2026-05-04 05:11 -34.73329 -56.02126 5585 ft 258 kts 337°
2026-05-04 05:11 -34.71616 -56.02870 6529 ft 265 kts 337°
2026-05-04 05:11 -34.69856 -56.03610 7433 ft 270 kts 338°
2026-05-04 05:11 -34.68064 -56.04351 8366 ft 274 kts 338°
2026-05-04 05:12 -34.66242 -56.05109 9301 ft 279 kts 337°
2026-05-04 05:12 -34.64392 -56.05883 10188 ft 284 kts 338°
2026-05-04 05:12 -34.62449 -56.06697 10540 ft 308 kts 337°
2026-05-04 05:12 -34.60332 -56.07584 10755 ft 336 kts 338°
2026-05-04 05:13 -34.58097 -56.08507 11542 ft 340 kts 338°
2026-05-04 05:13 -34.55869 -56.09429 12330 ft 345 kts 337°
2026-05-04 05:13 -34.53581 -56.10384 13152 ft 350 kts 336°
2026-05-04 05:13 -34.51260 -56.11351 13940 ft 355 kts 336°
2026-05-04 05:14 -34.48912 -56.12326 14707 ft 358 kts 336°
2026-05-04 05:14 -34.46550 -56.13305 15444 ft 360 kts 336°
2026-05-04 05:14 -34.44162 -56.14297 16135 ft 365 kts 336°
2026-05-04 05:14 -34.41752 -56.15297 16884 ft 367 kts 335°
2026-05-04 05:15 -34.39324 -56.16302 17603 ft 370 kts 335°
2026-05-04 05:15 -34.36875 -56.17317 18325 ft 373 kts 335°
2026-05-04 05:15 -34.34395 -56.18309 18908 ft 379 kts 339°
2026-05-04 05:15 -34.31819 -56.19116 19462 ft 383 kts 339°
2026-05-04 05:16 -34.29235 -56.19947 20038 ft 386 kts 338°
2026-05-04 05:16 -34.26625 -56.20791 20570 ft 390 kts 338°
2026-05-04 05:16 -34.23988 -56.21635 21106 ft 394 kts 338°
2026-05-04 05:16 -34.21323 -56.22483 21655 ft 397 kts 338°
2026-05-04 05:17 -34.18673 -56.23330 22172 ft 401 kts 338°
2026-05-04 05:17 -34.15964 -56.24197 22691 ft 404 kts 338°
2026-05-04 05:17 -34.13237 -56.25068 23192 ft 407 kts 338°
2026-05-04 05:17 -34.10478 -56.25947 23661 ft 411 kts 338°
2026-05-04 05:18 -34.07706 -56.26830 24082 ft 413 kts 338°
2026-05-04 05:18 -34.04914 -56.27719 24456 ft 416 kts 338°
2026-05-04 05:18 -34.02103 -56.28614 24871 ft 419 kts 338°
2026-05-04 05:18 -33.99273 -56.29514 25267 ft 421 kts 338°
2026-05-04 05:19 -33.96432 -56.30417 25667 ft 423 kts 338°
2026-05-04 05:19 -33.93579 -56.31323 26056 ft 425 kts 338°
2026-05-04 05:19 -33.90706 -56.32236 26447 ft 428 kts 338°
2026-05-04 05:19 -33.87819 -56.33151 26822 ft 430 kts 338°
2026-05-04 05:20 -33.85899 -56.33760 27068 ft 432 kts 338°
2026-05-04 05:20 -33.82986 -56.34684 27427 ft 434 kts 338°
2026-05-04 05:20 -33.79101 -56.35914 27912 ft 437 kts 338°
2026-05-04 05:20 -33.76150 -56.36848 28274 ft 440 kts 338°
2026-05-04 05:21 -33.73179 -56.37787 28636 ft 442 kts 338°
2026-05-04 05:21 -33.71168 -56.38423 28874 ft 443 kts 338°
2026-05-04 05:21 -33.68211 -56.39357 29221 ft 446 kts 338°
2026-05-04 05:21 -33.65196 -56.40309 29521 ft 449 kts 338°
2026-05-04 05:22 -33.62161 -56.41266 29861 ft 451 kts 338°
2026-05-04 05:22 -33.59118 -56.42225 30172 ft 453 kts 338°
2026-05-04 05:22 -33.56053 -56.43190 30447 ft 456 kts 338°
2026-05-04 05:22 -33.52977 -56.44159 30711 ft 458 kts 338°
2026-05-04 05:23 -33.49889 -56.45130 30981 ft 460 kts 338°
2026-05-04 05:23 -33.46788 -56.46104 31216 ft 462 kts 338°
2026-05-04 05:23 -33.43665 -56.47085 31441 ft 465 kts 338°
2026-05-04 05:23 -33.40536 -56.48067 31699 ft 466 kts 338°
2026-05-04 05:24 -33.37432 -56.49040 31942 ft 469 kts 338°
2026-05-04 05:24 -33.34301 -56.50109 32171 ft 466 kts 334°
2026-05-04 05:24 -33.31202 -56.51301 32397 ft 469 kts 334°
2026-05-04 05:24 -33.28082 -56.52485 32627 ft 471 kts 334°
2026-05-04 05:25 -33.24952 -56.53674 32826 ft 473 kts 334°
2026-05-04 05:25 -33.21804 -56.54875 33039 ft 475 kts 334°
2026-05-04 05:25 -33.18645 -56.56079 33259 ft 476 kts 334°
2026-05-04 05:25 -33.15486 -56.57281 33477 ft 478 kts 334°
2026-05-04 05:26 -33.12311 -56.58493 33650 ft 480 kts 334°
2026-05-04 05:26 -33.09120 -56.59713 33853 ft 482 kts 334°
2026-05-04 05:26 -33.05918 -56.60933 34018 ft 484 kts 334°
2026-05-04 05:26 -33.02701 -56.62157 34185 ft 486 kts 334°
2026-05-04 05:27 -32.99469 -56.63386 34361 ft 487 kts 334°
2026-05-04 05:28 -32.76834 -56.71972 35776 ft 487 kts 334°
2026-05-04 05:29 -32.73602 -56.73193 36016 ft 487 kts 334°
2026-05-04 05:29 -32.70375 -56.74413 36237 ft 486 kts 334°
2026-05-04 05:29 -32.67156 -56.75628 36468 ft 485 kts 334°
2026-05-04 05:29 -32.63948 -56.76838 36672 ft 484 kts 334°
2026-05-04 05:31 -32.41584 -56.85244 38073 ft 481 kts 334°
2026-05-04 05:31 -32.38388 -56.86444 38070 ft 483 kts 334°
2026-05-04 05:32 -32.32002 -56.88828 38071 ft 479 kts 334°